When you browse on this site, cookies collect data to enhance your experience and personalize the content and advertising you see.
Visit our Privacy Policy to learn more. By continuing to use the site, you agree to this use of cookies and data.
  • In Schweiz
  • Länderverzeichnis
  • Für 7 Tage
  • Wassertemperatur
  • Satellitenkarten
  • Wetterkarte
  • Widgets
  • user-avatar
    Anmelden

    Stündliche Wetter Larnaka

    Heute, 26 März, Dienstag

    Zeit Temperatur Niederschläge Wind Luftdruck Luftfeuchtigkeit
    00:00 +10°C° 0 mm 5 m/S 756 mmHg 55%
    01:00 +10°C° 0 mm 4 m/S 756 mmHg 55%
    02:00 +10°C° 0 mm 4 m/S 756 mmHg 56%
    03:00 +10°C° 0 mm 4 m/S 756 mmHg 62%
    04:00 +8°C° 0 mm 4 m/S 757 mmHg 69%
    05:00 +9°C° 0 mm 3 m/S 757 mmHg 75%
    06:00 +11°C° 0 mm 3 m/S 757 mmHg 68%
    07:00 +13°C° 0 mm 3 m/S 758 mmHg 60%
    08:00 +16°C° 0 mm 3 m/S 758 mmHg 52%
    09:00 +17°C° 0 mm 3 m/S 758 mmHg 50%
    10:00 +18°C° 0 mm 4 m/S 759 mmHg 48%
    11:00 +19°C° 0 mm 5 m/S 759 mmHg 46%
    12:00 +19°C° 0 mm 5 m/S 759 mmHg 47%
    13:00 +19°C° 0 mm 6 m/S 759 mmHg 48%
    14:00 +19°C° 0 mm 6 m/S 759 mmHg 49%
    15:00 +17°C° 0 mm 6 m/S 759 mmHg 51%
    16:00 +17°C° 0 mm 5 m/S 759 mmHg 53%
    17:00 +16°C° 0 mm 5 m/S 759 mmHg 55%
    18:00 +15°C° 0 mm 4 m/S 759 mmHg 59%
    19:00 +14°C° 0 mm 3 m/S 759 mmHg 64%
    20:00 +14°C° 0 mm 2 m/S 760 mmHg 68%
    21:00 +13°C° 0 mm 2 m/S 760 mmHg 71%
    22:00 +13°C° 0 mm 2 m/S 760 mmHg 73%
    23:00 +13°C° 0 mm 2 m/S 760 mmHg 75%

    Morgen, 27 März, Mittwoch

    Zeit Temperatur Niederschläge Wind Luftdruck Luftfeuchtigkeit
    00:00 +12°C° 0 mm 2 m/S 760 mmHg 75%
    01:00 +12°C° 0 mm 2 m/S 760 mmHg 74%
    02:00 +11°C° 0 mm 3 m/S 760 mmHg 74%
    03:00 +12°C° 0 mm 2 m/S 760 mmHg 74%
    04:00 +12°C° 0 mm 2 m/S 760 mmHg 74%
    05:00 +10°C° 0 mm 2 m/S 760 mmHg 74%
    06:00 +13°C° 0 mm 2 m/S 760 mmHg 67%
    07:00 +15°C° 0 mm 2 m/S 761 mmHg 61%
    08:00 +17°C° 0 mm 2 m/S 761 mmHg 54%
    09:00 +18°C° 0 mm 2 m/S 762 mmHg 51%
    10:00 +19°C° 0 mm 3 m/S 762 mmHg 48%
    11:00 +20°C° 0 mm 3 m/S 762 mmHg 46%
    12:00 +20°C° 0.1 mm 4 m/S 762 mmHg 48%
    13:00 +20°C° 0.1 mm 6 m/S 762 mmHg 51%
    14:00 +21°C° 0.1 mm 7 m/S 762 mmHg 53%
    15:00 +21°C° 0.2 mm 7 m/S 762 mmHg 55%
    16:00 +20°C° 0.2 mm 7 m/S 762 mmHg 56%
    17:00 +20°C° 0.2 mm 7 m/S 762 mmHg 57%
    18:00 +19°C° 0 mm 6 m/S 763 mmHg 63%
    19:00 +16°C° 0 mm 6 m/S 763 mmHg 69%
    20:00 +15°C° 0 mm 5 m/S 764 mmHg 74%
    21:00 +14°C° 0 mm 5 m/S 764 mmHg 75%
    22:00 +14°C° 0 mm 5 m/S 764 mmHg 77%
    23:00 +14°C° 0 mm 5 m/S 764 mmHg 78%

    übermorgen, 28 März, Donnerstag

    Zeit Temperatur Niederschläge Wind Luftdruck Luftfeuchtigkeit
    00:00 +13°C° 0 mm 5 m/S 764 mmHg 80%
    01:00 +13°C° 0 mm 5 m/S 764 mmHg 81%
    02:00 +13°C° 0 mm 5 m/S 764 mmHg 83%
    03:00 +12°C° 0 mm 4 m/S 764 mmHg 84%
    04:00 +12°C° 0 mm 3 m/S 763 mmHg 85%
    05:00 +12°C° 0 mm 3 m/S 763 mmHg 86%
    06:00 +14°C° 0 mm 2 m/S 763 mmHg 78%
    07:00 +16°C° 0 mm 2 m/S 764 mmHg 71%
    08:00 +19°C° 0 mm 1 m/S 764 mmHg 63%
    09:00 +19°C° 0 mm 2 m/S 764 mmHg 60%
    10:00 +20°C° 0 mm 4 m/S 764 mmHg 58%
    11:00 +20°C° 0 mm 5 m/S 764 mmHg 55%
    12:00 +20°C° 0 mm 6 m/S 764 mmHg 58%
    13:00 +20°C° 0 mm 7 m/S 764 mmHg 60%
    14:00 +20°C° 0 mm 8 m/S 763 mmHg 62%
    15:00 +18°C° 0 mm 7 m/S 763 mmHg 63%
    16:00 +19°C° 0 mm 6 m/S 763 mmHg 63%
    17:00 +19°C° 0 mm 6 m/S 762 mmHg 64%
    18:00 +17°C° 0 mm 5 m/S 763 mmHg 68%
    19:00 +16°C° 0 mm 5 m/S 763 mmHg 73%
    20:00 +16°C° 0 mm 5 m/S 763 mmHg 77%
    21:00 +15°C° 0.2 mm 4 m/S 763 mmHg 74%
    22:00 +15°C° 0.2 mm 4 m/S 762 mmHg 70%
    23:00 +14°C° 0.2 mm 4 m/S 762 mmHg 67%

    29 März, Freitag

    Zeit Temperatur Niederschläge Wind Luftdruck Luftfeuchtigkeit
    00:00 +14°C° 0.2 mm 3 m/S 762 mmHg 69%
    01:00 +15°C° 0.2 mm 2 m/S 761 mmHg 70%
    02:00 +15°C° 0.2 mm 2 m/S 761 mmHg 72%
    03:00 +14°C° 0 mm 2 m/S 760 mmHg 73%
    04:00 +13°C° 0 mm 3 m/S 760 mmHg 74%
    05:00 +13°C° 0 mm 4 m/S 759 mmHg 76%
    06:00 +14°C° 0 mm 4 m/S 759 mmHg 76%
    07:00 +15°C° 0 mm 4 m/S 759 mmHg 76%
    08:00 +17°C° 0 mm 4 m/S 759 mmHg 76%
    09:00 +17°C° 0 mm 4 m/S 759 mmHg 76%
    10:00 +17°C° 0 mm 4 m/S 759 mmHg 75%
    11:00 +17°C° 0 mm 4 m/S 759 mmHg 75%
    12:00 +18°C° 0.2 mm 4 m/S 758 mmHg 74%
    13:00 +17°C° 0.2 mm 5 m/S 757 mmHg 73%
    14:00 +19°C° 0.2 mm 5 m/S 756 mmHg 72%
    15:00 +17°C° 0.4 mm 5 m/S 756 mmHg 77%
    16:00 +16°C° 0.4 mm 5 m/S 756 mmHg 82%
    17:00 +16°C° 0.4 mm 5 m/S 755 mmHg 88%
    18:00 +15°C° 0 mm 5 m/S 755 mmHg 87%
    19:00 +15°C° 0 mm 5 m/S 756 mmHg 86%
    20:00 +15°C° 0 mm 5 m/S 756 mmHg 86%
    21:00 +15°C° 0.4 mm 4 m/S 755 mmHg 87%
    22:00 +15°C° 0.4 mm 4 m/S 755 mmHg 88%
    23:00 +16°C° 0.4 mm 3 m/S 755 mmHg 89%

    30 März, Samstag

    Zeit Temperatur Niederschläge Wind Luftdruck Luftfeuchtigkeit
    00:00 +16°C° 1.4 mm 3 m/S 755 mmHg 90%
    01:00 +14°C° 1.4 mm 3 m/S 754 mmHg 92%
    02:00 +15°C° 1.4 mm 2 m/S 754 mmHg 93%
    03:00 +15°C° 0.7 mm 2 m/S 754 mmHg 93%
    04:00 +15°C° 0.7 mm 2 m/S 753 mmHg 93%
    05:00 +15°C° 0.7 mm 2 m/S 753 mmHg 93%
    06:00 +16°C° 1.6 mm 2 m/S 753 mmHg 86%
    07:00 +17°C° 1.6 mm 2 m/S 753 mmHg 79%
    08:00 +18°C° 1.6 mm 3 m/S 753 mmHg 71%
    09:00 +18°C° 0.5 mm 3 m/S 753 mmHg 68%
    10:00 +19°C° 0.5 mm 3 m/S 753 mmHg 65%
    11:00 +19°C° 0.5 mm 4 m/S 753 mmHg 61%
    12:00 +19°C° 0.5 mm 3 m/S 753 mmHg 62%
    13:00 +19°C° 0.5 mm 3 m/S 753 mmHg 62%
    14:00 +18°C° 0.5 mm 3 m/S 752 mmHg 63%
    15:00 +18°C° 0.7 mm 3 m/S 752 mmHg 68%
    16:00 +17°C° 0.7 mm 4 m/S 752 mmHg 72%
    17:00 +15°C° 0.7 mm 5 m/S 752 mmHg 77%
    18:00 +15°C° 0.7 mm 5 m/S 752 mmHg 80%
    19:00 +15°C° 0.7 mm 5 m/S 752 mmHg 83%
    20:00 +14°C° 0.7 mm 4 m/S 752 mmHg 86%
    21:00 +14°C° 0.3 mm 4 m/S 752 mmHg 86%
    22:00 +14°C° 0.3 mm 4 m/S 752 mmHg 85%
    23:00 +14°C° 0.3 mm 4 m/S 752 mmHg 85%

    31 März, Sonntag

    Zeit Temperatur Niederschläge Wind Luftdruck Luftfeuchtigkeit
    00:00 +14°C° 1.4 mm 4 m/S 752 mmHg 84%
    01:00 +14°C° 1.4 mm 5 m/S 751 mmHg 84%
    02:00 +14°C° 1.4 mm 5 m/S 751 mmHg 83%
    03:00 +14°C° 1.3 mm 6 m/S 751 mmHg 83%
    04:00 +14°C° 1.3 mm 6 m/S 751 mmHg 84%
    05:00 +14°C° 1.3 mm 6 m/S 750 mmHg 84%
    06:00 +14°C° 1 mm 6 m/S 750 mmHg 82%
    07:00 +15°C° 1 mm 6 m/S 750 mmHg 79%
    08:00 +15°C° 1 mm 6 m/S 750 mmHg 77%
    09:00 +16°C° 0.5 mm 6 m/S 750 mmHg 74%
    10:00 +17°C° 0.5 mm 6 m/S 750 mmHg 71%
    11:00 +17°C° 0.5 mm 5 m/S 750 mmHg 68%
    12:00 +19°C° 0.8 mm 5 m/S 750 mmHg 68%
    13:00 +19°C° 0.8 mm 6 m/S 750 mmHg 68%
    14:00 +19°C° 0.8 mm 6 m/S 750 mmHg 68%
    15:00 +17°C° 0.5 mm 7 m/S 749 mmHg 70%
    16:00 +17°C° 0.5 mm 8 m/S 749 mmHg 71%
    17:00 +16°C° 0.5 mm 9 m/S 749 mmHg 73%
    18:00 +15°C° 0 mm 8 m/S 750 mmHg 75%
    19:00 +15°C° 0 mm 7 m/S 750 mmHg 77%
    20:00 +14°C° 0 mm 7 m/S 750 mmHg 78%
    21:00 +14°C° 0 mm 6 m/S 750 mmHg 77%
    22:00 +13°C° 0 mm 4 m/S 751 mmHg 75%
    23:00 +13°C° 0 mm 3 m/S 751 mmHg 74%
    Mehr zeigen